Find Starlink 31776

NORAD ID: 59603 Int'l Des: 2024-080 Owner: SPXS Country: US Constellation: starlink operational
LEOCIRCULAR

Live Position

Loading 3D Globe...

About Starlink 31776

Description loading...

Upcoming Passes

Passes for default location (London). Set your location on the main map for personalized predictions.

Altitude History

Loading altitude history...

Two-Line Element Set

1 59603U 24080C 26107.22855993 .00000792 00000-0 38293-4 0 9993
2 59603 42.9996 183.9798 0001220 273.1451 86.9261 15.27577661110389
Epoch: Apr 17, 2026 • Age: 8 hours

Current Status

Altitude 494.4 km
Velocity 7.62 km/s
Sub-Earth Point -40.32°S, 76.36°E
Launch Date Apr 28, 2024
Age 1.9 years
Type internet

Technical Details

Classification Payload
Mass 730.00 kg
Dry Mass 700.00 kg
Total Mass 730.00 kg
Length 0.30 m
Diameter 4.10 m
Span 29.00 m
Shape Box + pan
Manufacturer SPXS
Bus Type Starlink V2M
Phase Status In Orbit
Owner/State SPXS/US

Most Searched